(204235) = 2004 DQ30

Discovered at Socorro on 2004-02-17 by LINEAR.

Orbit

Orbit type: Main Belt

Note: WebGL enabled browser required.

epoch2023-09-13.0
epoch JD2460200.5
perihelion date2021-08-04.76991
perihelion JD2459431.26991
argument of perihelion (°)220.82136
ascending node (°)347.71648
inclination (°)13.71849
eccentricity0.2234893
perihelion distance (AU)2.4675055
Tisserand w.r.t. Jupiter3.1
ΔV w.r.t. Earth (km/sec)10.7
semimajor axis (AU)3.1776840
mean anomaly (°)133.84250
mean daily motion (°/day)0.17399540
aphelion distance (AU)3.888
period (years)5.66
P-vector [x]-0.87453434
P-vector [y]-0.35993308
P-vector [z]-0.32501980
Q-vector [x]0.48233194
Q-vector [y]-0.71526934
Q-vector [z]-0.50571303
absolute magnitude14.96
phase slope0.15
uncertainty0
referenceMPEC 2023-X132
observations used741
oppositions15
arc length (days)7288
first opposition used2003
last opposition used2023
residual rms (arc-secs)0.65
perturbers coarse indicatorM-v
perturbers precise indicator003Ek
first observation date used2003-12-23.0
last observation date used2023-12-06.0
computer nameMPCLINUX
JD of orbit computation2456639.838338
perihelion JD uncertainty (days)1.3012E-04
argument of perihelion uncertainty (°)3.1300E-05
ascending node uncertainty (°)2.5848E-05
inclination uncertainty (°)9.9739E-06
eccentricity uncertainty 9.2991E-08
perihelion distance uncertainty (AU)2.7394E-07
Minimum Orbit Intersection Distances (in AU)
for orbit epoch: 2460200.5, reference: E2023-XD2
Mercury2.03965
Venus1.76493
Earth1.48143
Mars0.87991
Jupiter1.22285
Saturn5.51657
Uranus15.6741
Neptune26.0197

Observations

749 total observations over interval: 2003 12 23.40187 – 2023 12 06.166806
These data are available for download (format description).

Date (UT) J2000 RA J2000 Dec Magn Location Ref
2003 12 23.40187 11 14 28.50 +12 05 56.0 19.6   704 – Lincoln Laboratory ETS, New Mexico MPS 102261
2003 12 23.41503 11 14 28.86 +12 05 52.2 19.8   704 – Lincoln Laboratory ETS, New Mexico MPS 102261
2003 12 23.42848 11 14 29.20 +12 05 47.8 19.5   704 – Lincoln Laboratory ETS, New Mexico MPS 102261
2003 12 23.44177 11 14 29.63 +12 05 44.5 19.5   704 – Lincoln Laboratory ETS, New Mexico MPS 102261
2003 12 23.45491 11 14 29.99 +12 05 41.4 19.5   704 – Lincoln Laboratory ETS, New Mexico MPS 102261
2003 12 28.40525 11 16 42.51 +11 44 33.8 19.5   704 – Lincoln Laboratory ETS, New Mexico MPS 102261
2003 12 28.43125 11 16 43.11 +11 44 29.1 20.4   704 – Lincoln Laboratory ETS, New Mexico MPS 102261
2003 12 28.44439 11 16 43.44 +11 44 25.4 20.1   704 – Lincoln Laboratory ETS, New Mexico MPS 102261
2003 12 28.45749 11 16 43.69 +11 44 22.4 20.1   704 – Lincoln Laboratory ETS, New Mexico MPS 102261
2004 01 23.33589 11 18 45.07 +10 32 48.8 19.2   704 – Lincoln Laboratory ETS, New Mexico MPS 101260
2004 01 23.34876 11 18 44.79 +10 32 46.9 20.2   704 – Lincoln Laboratory ETS, New Mexico MPS 101260
2004 01 23.36148 11 18 44.61 +10 32 46.1 20.1   704 – Lincoln Laboratory ETS, New Mexico MPS 101260
2004 01 23.37428 11 18 44.32 +10 32 46.0 20.6   704 – Lincoln Laboratory ETS, New Mexico MPS 101260
2004 01 23.38695 11 18 44.14 +10 32 43.5 19.8   704 – Lincoln Laboratory ETS, New Mexico MPS 101260
2004 01 29.33751 11 16 42.36 +10 25 23.5 19.2   704 – Lincoln Laboratory ETS, New Mexico MPS 101260
2004 01 29.34973 11 16 42.02 +10 25 22.3 19.5   704 – Lincoln Laboratory ETS, New Mexico MPS 101260
2004 01 29.36206 11 16 41.70 +10 25 22.3 19.9   704 – Lincoln Laboratory ETS, New Mexico MPS 101260
2004 01 29.38688 11 16 41.09 +10 25 21.1 19.2   704 – Lincoln Laboratory ETS, New Mexico MPS 101260
2004 02 17.27995 11 04 23.06 +10 17 48.8 18.1   704 – Lincoln Laboratory ETS, New Mexico MPS 100268
2004 02 17.29181 11 04 22.45 +10 17 48.5 18.4   704 – Lincoln Laboratory ETS, New Mexico MPS 100268
2004 02 17.30364 11 04 21.80 +10 17 49.0 18.3   704 – Lincoln Laboratory ETS, New Mexico MPS 100268
2004 02 17.31556 11 04 21.18 +10 17 48.6 18.9   704 – Lincoln Laboratory ETS, New Mexico MPS 100268
2004 02 17.32752 11 04 20.54 +10 17 48.9 18.5   704 – Lincoln Laboratory ETS, New Mexico MPS 100268
2004 02 23.28027 10 59 00.95 +10 17 52.8 18.0   704 – Lincoln Laboratory ETS, New Mexico MPS 100268
2004 02 23.29412 10 59 00.16 +10 17 52.7 18.3   704 – Lincoln Laboratory ETS, New Mexico MPS 100268
2004 02 23.30574 10 58 59.49 +10 17 52.7 18.2   704 – Lincoln Laboratory ETS, New Mexico MPS 100268
2004 02 23.31954 10 58 58.69 +10 17 52.4 18.0   704 – Lincoln Laboratory ETS, New Mexico MPS 100268
2004 02 23.33378 10 58 57.86 +10 17 53.1 18.2   704 – Lincoln Laboratory ETS, New Mexico MPS 100268
2004 03 11.21898 10 42 37.40 +10 12 45.4 18.3   644 – Palomar Mountain/NEAT MPS 101260
2004 03 11.23927 10 42 36.20 +10 12 44.5 17.8   644 – Palomar Mountain/NEAT MPS 101260
2004 03 11.26061 10 42 34.96 +10 12 43.3 17.9   644 – Palomar Mountain/NEAT MPS 101260
2004 03 15.22893 10 38 54.24 +10 08 56.3 18.6   704 – Lincoln Laboratory ETS, New Mexico MPS 101260
2004 03 15.24001 10 38 53.60 +10 08 56.2 19.0   704 – Lincoln Laboratory ETS, New Mexico MPS 101260
2004 03 15.24286 10 38 53.47 +10 08 56.6 19.1 V 703 – Catalina Sky Survey MPS 101260
2004 03 15.25106 10 38 52.96 +10 08 55.4 19.1   704 – Lincoln Laboratory ETS, New Mexico MPS 101260
2004 03 15.25767 10 38 52.58 +10 08 55.9 18.9 V 703 – Catalina Sky Survey MPS 101260
2004 03 15.26199 10 38 52.38 +10 08 54.2 18.8   704 – Lincoln Laboratory ETS, New Mexico MPS 101260
2004 03 15.27244 10 38 51.80 +10 08 54.8 18.9 V 703 – Catalina Sky Survey MPS 101260
2004 03 15.27297 10 38 51.73 +10 08 54.1 18.9   704 – Lincoln Laboratory ETS, New Mexico MPS 101260
2004 03 15.28735 10 38 50.90 +10 08 53.5 18.8 V 703 – Catalina Sky Survey MPS 101260
2004 03 19.22176 10 35 24.59 +10 03 48.0 18.9   704 – Lincoln Laboratory ETS, New Mexico MPS 101260
2004 03 19.22193 10 35 24.59 +10 03 47.0 18.7   704 – Lincoln Laboratory ETS, New Mexico MPS 101260
2004 03 19.23260 10 35 24.01 +10 03 46.7 18.9   704 – Lincoln Laboratory ETS, New Mexico MPS 101260
2004 03 19.23277 10 35 24.02 +10 03 46.2 18.6   704 – Lincoln Laboratory ETS, New Mexico MPS 101260
2004 03 19.24337 10 35 23.46 +10 03 45.9 19.2   704 – Lincoln Laboratory ETS, New Mexico MPS 101260
2004 03 19.24354 10 35 23.48 +10 03 45.0 18.8   704 – Lincoln Laboratory ETS, New Mexico MPS 101260
2004 03 19.25421 10 35 22.90 +10 03 44.8 18.9   704 – Lincoln Laboratory ETS, New Mexico MPS 101260
2004 03 19.25438 10 35 22.92 +10 03 43.8 19.0   704 – Lincoln Laboratory ETS, New Mexico MPS 101260
2004 03 19.26498 10 35 22.28 +10 03 43.9 19.2   704 – Lincoln Laboratory ETS, New Mexico MPS 101260
2004 03 19.26515 10 35 22.32 +10 03 43.6 19.3   704 – Lincoln Laboratory ETS, New Mexico MPS 101260
2004 03 19.28328 10 35 21.38 +10 03 41.5 18.5   704 – Lincoln Laboratory ETS, New Mexico MPS 101260
2004 03 19.29406 10 35 20.83 +10 03 40.3 18.8   704 – Lincoln Laboratory ETS, New Mexico MPS 101260
2004 03 19.30495 10 35 20.25 +10 03 39.6 18.7   704 – Lincoln Laboratory ETS, New Mexico MPS 101260
2004 03 19.31578 10 35 19.68 +10 03 38.5 18.7   704 – Lincoln Laboratory ETS, New Mexico MPS 101260
2004 03 19.32666 10 35 19.12 +10 03 37.0 18.9   704 – Lincoln Laboratory ETS, New Mexico MPS 101260
2004 03 22.27833 10 32 55.23 +09 58 48.9 20.1   608 – Haleakala-AMOS MPS 102261
2004 03 22.28888 10 32 54.67 +09 58 47.7 19.6   608 – Haleakala-AMOS MPS 102261
2004 03 22.29953 10 32 54.13 +09 58 47.0 19.6   608 – Haleakala-AMOS MPS 102261
2004 03 27.27874 10 29 14.78 +09 48 37.3 18.7   704 – Lincoln Laboratory ETS, New Mexico MPS 103178
2004 03 27.28916 10 29 14.35 +09 48 36.1 18.8   704 – Lincoln Laboratory ETS, New Mexico MPS 103178
2004 03 27.29978 10 29 13.95 +09 48 34.1 19.2   704 – Lincoln Laboratory ETS, New Mexico MPS 103178
2004 03 27.31022 10 29 13.46 +09 48 32.4 19.2   704 – Lincoln Laboratory ETS, New Mexico MPS 103178
2004 03 27.32063 10 29 13.00 +09 48 30.8 19.0   704 – Lincoln Laboratory ETS, New Mexico MPS 103178
2004 04 12.16590 10 21 43.32 +08 58 36.1 18.4 R 703 – Catalina Sky Survey MPS 104344
2004 04 12.17741 10 21 43.15 +08 58 34.6 19.4 R 703 – Catalina Sky Survey MPS 104344
2004 04 12.18887 10 21 43.00 +08 58 30.9 19.6 R 703 – Catalina Sky Survey MPS 104344
2004 04 12.20054 10 21 42.73 +08 58 27.8 18.7 R 703 – Catalina Sky Survey MPS 104344
2004 04 14.23083 10 21 14.76 +08 50 10.3 19.2 R 699 – Lowell Observatory-LONEOS MPS 104344
2004 04 14.25108 10 21 14.53 +08 50 04.1   699 – Lowell Observatory-LONEOS MPS 104344
2004 04 14.27135 10 21 14.21 +08 49 59.3   699 – Lowell Observatory-LONEOS MPS 104344
2004 04 14.29158 10 21 13.95 +08 49 54.8   699 – Lowell Observatory-LONEOS MPS 104344
2004 05 13.15602 10 26 38.43 +06 08 08.2 19.3 C 704 – Lincoln Laboratory ETS, New Mexico MPS 294344
2004 05 13.16586 10 26 38.79 +06 08 04.1 19.2 C 704 – Lincoln Laboratory ETS, New Mexico MPS 294344
2004 05 13.17572 10 26 39.10 +06 08 00.8 19.5 C 704 – Lincoln Laboratory ETS, New Mexico MPS 294344
2004 05 13.18555 10 26 39.42 +06 07 55.4 19.2 C 704 – Lincoln Laboratory ETS, New Mexico MPS 294344
2004 05 13.19535 10 26 39.62 +06 07 52.2 19.2 C 704 – Lincoln Laboratory ETS, New Mexico MPS 294344
2004 05 16.18487 10 28 22.22 +05 46 52.2 19.9   704 – Lincoln Laboratory ETS, New Mexico MPS 107397
2004 05 16.19390 10 28 22.65 +05 46 48.2 19.7   704 – Lincoln Laboratory ETS, New Mexico MPS 107397
2004 05 16.20288 10 28 22.85 +05 46 44.1 19.5   704 – Lincoln Laboratory ETS, New Mexico MPS 107397
2004 05 16.21219 10 28 23.25 +05 46 40.6 19.7   704 – Lincoln Laboratory ETS, New Mexico MPS 107397
2005 06 17.70468 20 11 03.76 -38 24 09.6 18.9 R E12 – Siding Spring Survey MPS 137456
2005 06 17.71321 20 11 03.37 -38 24 10.5 19.3 R E12 – Siding Spring Survey MPS 137456
2005 06 17.72176 20 11 03.06 -38 24 12.6 19.7 R E12 – Siding Spring Survey MPS 137456
2005 06 17.73031 20 11 02.67 -38 24 14.1 19.7 R E12 – Siding Spring Survey MPS 137456
2005 07 04.53863 19 56 24.61 -39 01 08.6 18.8 V E12 – Siding Spring Survey MPS 137456
